Ono, PA

8:28 AM EDT on August 25, 2016 (GMT -0400)
Muir Army Air Field

Weather History for KMUI - October, 2011

Change the Weather History Date:

Tuesday, October 25, 2011

  Actual Average Record
Temperature  
Mean Temperature 54 °F -  
Max Temperature 64 °F 58 °F 71 °F (2000)
Min Temperature 45 °F 41 °F 34 °F (2013)
Degree Days  
Heating Degree Days 11    
Growing Degree Days 4 (Base 50)    
Moisture  
Dew Point 39 °F    
Average Humidity 61    
Maximum Humidity 96    
Minimum Humidity 33    
Precipitation  
Precipitation 0.00 in - - ()
Sea Level Pressure  
Sea Level Pressure 30.09 in    
Wind  
Wind Speed 6 mph (West)    
Max Wind Speed 15 mph    
Max Gust Speed 21 mph    
Visibility 10 miles    
Events      
Averages and records for this station are not official NWS values.
T = Trace of Precipitation, MM = Missing Value Source: NWS Daily Summary

Daily Weather History Graph

Daily Weather History Graph

Search for Another Location

Airport or City:

Trip Planner

Search our weather history database for the weather conditions in past years. The results will help you decide how hot, cold, wet, or windy it might be!

Date:

Astronomy

Oct. 25, 2011 Rise Set
Actual Time 7:27 AM EDT 6:12 PM EDT
Civil Twilight 6:59 AM EDT 6:40 PM EDT
Nautical Twilight 6:28 AM EDT 7:12 PM EDT
Astronomical Twilight 5:56 AM EDT 7:43 PM EDT
Moon 5:57 AM EDT 5:12 PM EDT
Length of Visible Light 11h 40m
Length of Day
10h 44m
Waning Crescent, 2% of the Moon is Illuminated
Oct 25
Waning Crescent
Oct 26
New
Nov 2
First Quarter
Nov 10
Full
Nov 18
Last Quarter

Hourly Weather History & Observations

Time (EDT) Temp. Dew Point Humidity Pressure Visibility Wind Dir Wind Speed Gust Speed Precip Events Conditions
12:55 AM 52.7 °F 49.3 °F 88% 30.06 in 10.0 mi West 8.1 mph 18.4 mph N/A   Clear
1:55 AM 51.1 °F 47.3 °F 87% 30.06 in 10.0 mi SSW 3.5 mph - N/A   Clear
2:55 AM 48.9 °F 46.9 °F 93% 30.06 in 10.0 mi WSW 4.6 mph - N/A   Clear
3:55 AM 47.7 °F 45.3 °F 92% 30.06 in 10.0 mi SW 4.6 mph - N/A   Clear
4:55 AM 49.1 °F 42.1 °F 77% 30.07 in 10.0 mi WSW 5.8 mph - N/A   Clear
5:55 AM 50.5 °F 41.0 °F 70% 30.09 in 10.0 mi SSW 6.9 mph 16.1 mph N/A   Clear
6:55 AM 49.5 °F 40.3 °F 71% 30.12 in 10.0 mi Variable 4.6 mph - N/A   Clear
7:55 AM 50.0 °F 39.2 °F 66% 30.14 in 10.0 mi Variable 5.8 mph - N/A   Clear
8:55 AM 52.0 °F 38.8 °F 61% 30.17 in 10.0 mi West 8.1 mph - N/A   Clear
9:55 AM 55.0 °F 36.0 °F 49% 30.17 in 10.0 mi NNW 9.2 mph - N/A   Clear
10:55 AM 56.7 °F 34.3 °F 43% 30.16 in 10.0 mi Variable 4.6 mph - N/A   Clear
11:55 AM 58.6 °F 32.9 °F 38% 30.15 in 10.0 mi NW 9.2 mph 20.7 mph N/A   Clear
12:55 PM 61.2 °F 32.9 °F 35% 30.13 in 10.0 mi West 6.9 mph 19.6 mph N/A   Clear
1:55 PM 63.0 °F 33.8 °F 34% 30.11 in 10.0 mi West 15.0 mph 20.7 mph N/A   Clear
2:55 PM 63.9 °F 34.5 °F 34% 30.09 in 10.0 mi WSW 10.4 mph 18.4 mph N/A   Clear
3:55 PM 63.9 °F 35.1 °F 34% 30.09 in 10.0 mi West 10.4 mph - N/A   Clear
4:55 PM 63.9 °F 34.2 °F 33% 30.07 in 10.0 mi West 8.1 mph 16.1 mph N/A   Clear
5:55 PM 61.9 °F 34.5 °F 36% 30.07 in 10.0 mi WSW 9.2 mph - N/A   Partly Cloudy
6:55 PM 58.6 °F 35.8 °F 42% 30.08 in 10.0 mi West 5.8 mph - N/A   Clear
7:55 PM 53.6 °F 39.6 °F 59% 30.07 in 10.0 mi Calm Calm - N/A   Clear
8:55 PM 51.6 °F 40.1 °F 65% 30.06 in 10.0 mi Calm Calm - N/A   Clear
9:55 PM 49.3 °F 40.5 °F 72% 30.06 in 10.0 mi Calm Calm - N/A   Clear
10:55 PM 45.9 °F 44.2 °F 94% 30.06 in 10.0 mi Calm Calm - N/A   Clear
11:55 PM 45.0 °F 43.9 °F 96% 30.05 in 10.0 mi Calm Calm - N/A   Partly Cloudy